• Processing (Info)

  • MPEC 2014-F82 : 2013 FY27

    The following Minor Planet Electronic Circular may be linked-to from your own Web pages, but must not otherwise be redistributed electronically.

    A form allowing access to any MPEC is at the bottom of this page.


    Read MPEC 2014-F81 Read MPEC 2014-F83


    M.P.E.C. 2014-F82                                Issued 2014 Mar. 31, 13:22 UT
    
         The Minor Planet Electronic Circulars contain information on unusual
             minor planets and routine data on comets.  They are published
       on behalf of Commission 20 of the International Astronomical Union by the
              Minor Planet Center, Smithsonian Astrophysical Observatory,
                              Cambridge, MA 02138, U.S.A.
    
                 Prepared using the Tamkin Foundation Computer Network
    
                                  MPC@CFA.HARVARD.EDU
                URL http://www.minorplanetcenter.net/    ISSN 1523-6714
    
                                       2013 FY27
    
    Observations:
         K13F27Y*.C2013 03 17.08341 10 37 26.710-07 03 55.19               cEF082807
         K13F27Y .C2013 03 17.14652 10 37 26.558-07 03 53.65         21.9 rcEF082807
         K13F27Y .C2013 03 17.21064 10 37 26.375-07 03 52.37               cEF082807
         K13F27Y .C2013 05 07.98668 10 35 59.600-06 46 56.10               cEF082807
         K13F27Y .C2013 05 08.00735 10 35 59.590-06 46 55.86         21.9 rcEF082807
         K13F27Y .C2013 05 08.09974 10 35 59.518-06 46 54.16               cEF082807
         K13F27Y .C2013 05 08.97556 10 35 58.938-06 46 39.15               cEF082807
         K13F27Y  C2013 07 06.99167 10 36 37.616-06 37 35.61               cEF082304
         K13F27Y  C2013 07 07.97105 10 36 39.442-06 37 35.46         22.0 rcEF082304
         K13F27Y .C2014 03 24.00410 10 38 46.302-06 58 36.40               cEF082807
         K13F27Y .C2014 03 25.00225 10 38 44.052-06 58 16.29               cEF082807
         K13F27Y .C2014 03 26.00428 10 38 41.759-06 57 55.99               cEF082807
    
    Observer details:
    304 Las Campanas Observatory.  Observers S. S. Sheppard, C. Trujillo.  6.5-m
        Magellan-Baade telescope + CCD.
    807 Cerro Tololo.  Observers S. S. Sheppard, C. Trujillo.  4.0-m CTIO
        reflector + CCD.
    
    Orbital elements:
    2013 FY27
    Epoch 2014 May 23.0 TT = JDT 2456800.5                  MPC
    M 214.46118              (2000.0)            P               Q
    n   0.00216253     Peri.  136.72941     +0.79347223     +0.60486455
    a  59.2235677      Node   187.09259     -0.58925583     +0.79121780
    e   0.3942577      Incl.   33.07550     +0.15224777     -0.09007372
    P 456              H    3.0           G   0.15           U   8
    Residuals in seconds of arc
    130317 807  0.3+  0.3-    130508 807  0.4+  0.0     130707 304  0.1-  0.2+
    130317 807  0.3+  0.0     130508 807  0.4+  0.1+    140324 807  0.2+  0.0
    130317 807  0.1-  0.0     130508 807  0.6+  0.2+    140325 807  0.5+  0.0
    130507 807  0.3+  0.1+    130706 304  0.5+  0.1+    140326 807  0.0   0.0
    
    Ephemeris:
    2013 FY27                a,e,i = 59.22, 0.39, 33                 q = 35.874
    Date    TT    R. A. (2000) Decl.     Delta      r     Elong.  Phase     V
    2014 03 01    10 39 42.7 -07 05 48  79.4613 80.4189   165.0     0.2    22.1
    ...
    2014 03 16    10 39 05.2 -07 01 15  79.4688 80.4148   161.9     0.2    22.1
    ...
    2014 03 24    10 38 46.3 -06 58 37  79.4993 80.4126   156.2     0.3    22.1
    ...
    2014 03 30    10 38 33.0 -06 56 35  79.5337 80.4110   151.3     0.3    22.1
    2014 03 31    10 38 30.8 -06 56 15  79.5404 80.4107   150.4     0.4    22.1
    2014 04 01    10 38 28.7 -06 55 54  79.5474 80.4104   149.6     0.4    22.1
    ...
    2014 04 07    10 38 16.6 -06 53 51  79.5944 80.4088   144.2     0.4    22.1
    ...
    2014 04 15    10 38 02.3 -06 51 09  79.6705 80.4066   137.0     0.5    22.1
    ...
    2014 04 30    10 37 41.6 -06 46 18  79.8490 80.4025   123.0     0.6    22.1
    
    A. U. Tomatic                (C) Copyright 2014 MPC           M.P.E.C. 2014-F82
    

    Read MPEC 2014-F81 Read MPEC 2014-F83


    MPEC number:

    Enter an MPEC number in one of the following forms:

    • 1997-B01 (the full form)
    • J97B01 (the packed version of the full form)
    • B01 (the abbreviated form)